Time,TemperatureF,DewpointF,PressureIn,WindDirection,WindDirectionDegrees,WindSpeedMPH,WindSpeedGustMPH,Humidity,HourlyPrecipIn,Conditions,Clouds,dailyrainin,SoftwareType,DateUTC
2013-08-19 00:08:00,63.0,58.1,30.11,West,270,0.0,-999.0,84,-99.99,,,0.00,Acu-Link.com,2013-08-19 04:08:00,
2013-08-19 00:23:00,62.4,57.5,30.11,West,270,0.0,-999.0,84,-99.99,,,0.00,Acu-Link.com,2013-08-19 04:23:00,
2013-08-19 00:39:00,62.4,57.8,30.10,NW,315,0.0,-999.0,85,-99.99,,,0.00,Acu-Link.com,2013-08-19 04:39:00,
2013-08-19 00:54:00,62.1,57.5,30.11,SW,225,0.0,-999.0,85,-99.99,,,0.00,Acu-Link.com,2013-08-19 04:54:00,
2013-08-19 01:09:00,61.5,56.9,30.11,NNW,337,0.0,-999.0,85,-99.99,,,0.00,Acu-Link.com,2013-08-19 05:09:00,
2013-08-19 01:24:00,61.2,56.7,30.11,North,0,0.0,-999.0,85,-99.99,,,0.00,Acu-Link.com,2013-08-19 05:24:00,
2013-08-19 01:40:00,61.3,57.1,30.11,SW,225,0.0,-999.0,86,-99.99,,,0.00,Acu-Link.com,2013-08-19 05:40:00,
2013-08-19 01:55:00,61.2,57.0,30.10,SW,225,0.0,-999.0,86,-99.99,,,0.00,Acu-Link.com,2013-08-19 05:55:00,
2013-08-19 02:10:00,60.8,56.6,30.10,SW,225,0.0,-999.0,86,-99.99,,,0.00,Acu-Link.com,2013-08-19 06:10:00,
2013-08-19 02:25:00,60.6,56.4,30.10,SW,225,0.0,-999.0,86,-99.99,,,0.00,Acu-Link.com,2013-08-19 06:25:00,
2013-08-19 02:40:00,60.4,56.2,30.09,WSW,247,0.0,-999.0,86,-99.99,,,0.00,Acu-Link.com,2013-08-19 06:40:00,
2013-08-19 02:56:00,60.3,56.1,30.10,WSW,247,0.0,-999.0,86,-99.99,,,0.00,Acu-Link.com,2013-08-19 06:56:00,
2013-08-19 03:11:00,60.4,56.5,30.10,WSW,247,0.0,-999.0,87,-99.99,,,0.00,Acu-Link.com,2013-08-19 07:11:00,
2013-08-19 03:26:00,60.1,56.2,30.09,WSW,247,0.0,-999.0,87,-99.99,,,0.00,Acu-Link.com,2013-08-19 07:26:00,
2013-08-19 03:41:00,60.1,56.2,30.09,WSW,247,0.0,-999.0,87,-99.99,,,0.00,Acu-Link.com,2013-08-19 07:41:00,
2013-08-19 03:56:00,60.1,56.2,30.09,WSW,247,0.0,-999.0,87,-99.99,,,0.00,Acu-Link.com,2013-08-19 07:56:00,
2013-08-19 04:12:00,59.9,56.0,30.09,WSW,247,0.0,-999.0,87,-99.99,,,0.00,Acu-Link.com,2013-08-19 08:12:00,
2013-08-19 04:27:00,59.9,56.0,30.09,WSW,247,0.0,-999.0,87,-99.99,,,0.00,Acu-Link.com,2013-08-19 08:27:00,
2013-08-19 04:42:00,59.7,55.8,30.09,WSW,247,0.0,-999.0,87,-99.99,,,0.00,Acu-Link.com,2013-08-19 08:42:00,
2013-08-19 04:57:00,60.3,56.4,30.10,WSW,247,0.0,-999.0,87,-99.99,,,0.00,Acu-Link.com,2013-08-19 08:57:00,
2013-08-19 05:12:00,60.6,56.7,30.10,WSW,247,0.0,-999.0,87,-99.99,,,0.00,Acu-Link.com,2013-08-19 09:12:00,
2013-08-19 05:28:00,61.0,57.1,30.10,WSW,247,0.0,-999.0,87,-99.99,,,0.00,Acu-Link.com,2013-08-19 09:28:00,
2013-08-19 05:43:00,60.6,56.7,30.10,WSW,247,0.0,-999.0,87,-99.99,,,0.00,Acu-Link.com,2013-08-19 09:43:00,
2013-08-19 05:58:00,60.6,56.7,30.10,WSW,247,0.0,-999.0,87,-99.99,,,0.00,Acu-Link.com,2013-08-19 09:58:00,
2013-08-19 06:13:00,61.2,57.3,30.10,WSW,247,0.0,-999.0,87,-99.99,,,0.00,Acu-Link.com,2013-08-19 10:13:00,
2013-08-19 06:29:00,60.8,56.9,30.09,WSW,247,0.0,-999.0,87,-99.99,,,0.00,Acu-Link.com,2013-08-19 10:29:00,
2013-08-19 06:44:00,61.3,57.4,30.10,WSW,247,0.0,-999.0,87,-99.99,,,0.00,Acu-Link.com,2013-08-19 10:44:00,
2013-08-19 06:59:00,61.7,57.8,30.10,WSW,247,0.0,-999.0,87,-99.99,,,0.00,Acu-Link.com,2013-08-19 10:59:00,
2013-08-19 07:14:00,62.8,58.9,30.11,WSW,247,0.0,-999.0,87,-99.99,,,0.00,Acu-Link.com,2013-08-19 11:14:00,
2013-08-19 07:30:00,64.2,60.2,30.11,WSW,247,0.0,-999.0,87,-99.99,,,0.00,Acu-Link.com,2013-08-19 11:30:00,
2013-08-19 07:45:00,66.4,62.4,30.11,SW,225,0.0,-999.0,87,-99.99,,,0.00,Acu-Link.com,2013-08-19 11:45:00,
2013-08-19 08:00:00,66.7,62.0,30.11,West,270,0.0,-999.0,85,-99.99,,,0.00,Acu-Link.com,2013-08-19 12:00:00,
2013-08-19 08:15:00,66.9,61.6,30.12,NE,45,0.0,-999.0,83,-99.99,,,0.00,Acu-Link.com,2013-08-19 12:15:00,
2013-08-19 08:30:00,68.5,62.8,30.11,WSW,247,1.7,-999.0,82,-99.99,,,0.00,Acu-Link.com,2013-08-19 12:30:00,
2013-08-19 08:46:00,70.0,62.8,30.11,SSE,157,0.0,-999.0,78,-99.99,,,0.00,Acu-Link.com,2013-08-19 12:46:00,
2013-08-19 09:01:00,70.7,62.8,30.11,East,90,0.0,-999.0,76,-99.99,,,0.00,Acu-Link.com,2013-08-19 13:01:00,
2013-08-19 09:16:00,72.9,63.7,30.10,SSE,157,0.0,-999.0,73,-99.99,,,0.00,Acu-Link.com,2013-08-19 13:16:00,
2013-08-19 09:31:00,72.5,63.3,30.11,West,270,1.1,-999.0,73,-99.99,,,0.00,Acu-Link.com,2013-08-19 13:31:00,
2013-08-19 09:47:00,72.9,63.7,30.11,WSW,247,1.1,-999.0,73,-99.99,,,0.00,Acu-Link.com,2013-08-19 13:47:00,
2013-08-19 10:02:00,72.9,62.9,30.10,ESE,112,0.0,-999.0,71,-99.99,,,0.00,Acu-Link.com,2013-08-19 14:02:00,
2013-08-19 10:17:00,72.5,62.1,30.10,WSW,247,2.2,-999.0,70,-99.99,,,0.00,Acu-Link.com,2013-08-19 14:17:00,
2013-08-19 10:32:00,72.9,62.5,30.10,NW,315,2.2,-999.0,70,-99.99,,,0.00,Acu-Link.com,2013-08-19 14:32:00,
2013-08-19 10:47:00,73.4,62.6,30.10,NW,315,0.0,-999.0,69,-99.99,,,0.00,Acu-Link.com,2013-08-19 14:47:00,
2013-08-19 11:03:00,73.8,62.1,30.09,NNW,337,3.7,-999.0,67,-99.99,,,0.00,Acu-Link.com,2013-08-19 15:03:00,
2013-08-19 11:18:00,73.9,62.7,30.09,SSW,202,2.7,-999.0,68,-99.99,,,0.00,Acu-Link.com,2013-08-19 15:18:00,
2013-08-19 11:33:00,73.8,62.1,30.08,WNW,292,3.7,-999.0,67,-99.99,,,0.00,Acu-Link.com,2013-08-19 15:33:00,
2013-08-19 11:48:00,75.2,63.0,30.08,South,180,2.7,-999.0,66,-99.99,,,0.00,Acu-Link.com,2013-08-19 15:48:00,
2013-08-19 12:03:00,76.3,64.1,30.07,NNE,22,0.0,-999.0,66,-99.99,,,0.00,Acu-Link.com,2013-08-19 16:03:00,
2013-08-19 12:19:00,75.7,63.9,30.07,SSE,157,2.7,-999.0,67,-99.99,,,0.00,Acu-Link.com,2013-08-19 16:19:00,
2013-08-19 12:34:00,74.7,63.8,30.06,SSE,157,2.7,-999.0,69,-99.99,,,0.00,Acu-Link.com,2013-08-19 16:34:00,
2013-08-19 12:49:00,74.1,63.3,30.06,NW,315,0.0,-999.0,69,-99.99,,,0.00,Acu-Link.com,2013-08-19 16:49:00,
2013-08-19 13:05:00,74.7,64.2,30.06,West,270,1.7,-999.0,70,-99.99,,,0.00,Acu-Link.com,2013-08-19 17:05:00,
2013-08-19 13:20:00,74.7,64.2,30.06,WNW,292,1.1,-999.0,70,-99.99,,,0.00,Acu-Link.com,2013-08-19 17:20:00,
2013-08-19 13:35:00,75.2,64.7,30.06,ESE,112,1.7,-999.0,70,-99.99,,,0.00,Acu-Link.com,2013-08-19 17:35:00,
2013-08-19 13:50:00,76.3,64.9,30.05,SSW,202,2.7,-999.0,68,-99.99,,,0.00,Acu-Link.com,2013-08-19 17:50:00,
2013-08-19 14:05:00,76.1,64.8,30.06,SW,225,3.2,-999.0,68,-99.99,,,0.00,Acu-Link.com,2013-08-19 18:05:00,
2013-08-19 14:21:00,75.2,64.7,30.07,West,270,0.0,-999.0,70,-99.99,,,0.00,Acu-Link.com,2013-08-19 18:21:00,
2013-08-19 14:36:00,74.7,64.7,30.07,NNW,337,0.0,-999.0,71,-99.99,,,0.00,Acu-Link.com,2013-08-19 18:36:00,
2013-08-19 14:51:00,76.5,65.1,30.07,SW,225,2.7,-999.0,68,-99.99,,,0.00,Acu-Link.com,2013-08-19 18:51:00,
2013-08-19 15:06:00,74.7,64.7,30.05,NE,45,0.0,-999.0,71,-99.99,,,0.00,Acu-Link.com,2013-08-19 19:06:00,
2013-08-19 15:21:00,76.1,65.6,30.03,West,270,0.0,-999.0,70,-99.99,,,0.00,Acu-Link.com,2013-08-19 19:21:00,
2013-08-19 15:37:00,74.8,65.2,30.04,SW,225,2.7,-999.0,72,-99.99,,,0.00,Acu-Link.com,2013-08-19 19:37:00,
2013-08-19 15:52:00,75.2,65.1,30.05,WSW,247,3.2,-999.0,71,-99.99,,,0.00,Acu-Link.com,2013-08-19 19:52:00,
2013-08-19 16:07:00,76.6,65.2,30.04,NW,315,4.7,-999.0,68,-99.99,,,0.00,Acu-Link.com,2013-08-19 20:07:00,
2013-08-19 16:23:00,79.0,66.2,30.04,NNW,337,4.7,-999.0,65,-99.99,,,0.00,Acu-Link.com,2013-08-19 20:23:00,
2013-08-19 16:38:00,75.9,64.6,30.03,West,270,3.2,-999.0,68,-99.99,,,0.00,Acu-Link.com,2013-08-19 20:38:00,
2013-08-19 16:53:00,76.3,65.4,30.03,SE,135,3.7,-999.0,69,-99.99,,,0.00,Acu-Link.com,2013-08-19 20:53:00,
2013-08-19 17:08:00,75.7,64.8,30.03,South,180,2.7,-999.0,69,-99.99,,,0.00,Acu-Link.com,2013-08-19 21:08:00,
2013-08-19 17:23:00,75.6,65.1,30.03,NNW,337,1.7,-999.0,70,-99.99,,,0.00,Acu-Link.com,2013-08-19 21:23:00,
2013-08-19 17:39:00,77.0,65.6,30.03,WSW,247,3.2,-999.0,68,-99.99,,,0.00,Acu-Link.com,2013-08-19 21:39:00,
2013-08-19 17:54:00,76.5,65.6,30.04,ESE,112,1.1,-999.0,69,-99.99,,,0.00,Acu-Link.com,2013-08-19 21:54:00,
2013-08-19 18:09:00,75.9,65.0,30.04,ENE,67,0.0,-999.0,69,-99.99,,,0.00,Acu-Link.com,2013-08-19 22:09:00,
2013-08-19 18:24:00,75.6,65.1,30.03,NNW,337,0.0,-999.0,70,-99.99,,,0.00,Acu-Link.com,2013-08-19 22:24:00,
2013-08-19 18:39:00,74.8,64.3,30.04,NNW,337,1.7,-999.0,70,-99.99,,,0.00,Acu-Link.com,2013-08-19 22:39:00,
2013-08-19 18:55:00,74.1,64.1,30.04,NNW,337,0.0,-999.0,71,-99.99,,,0.00,Acu-Link.com,2013-08-19 22:55:00,
2013-08-19 19:10:00,73.8,64.2,30.04,West,270,2.2,-999.0,72,-99.99,,,0.00,Acu-Link.com,2013-08-19 23:10:00,
2013-08-19 19:25:00,72.9,63.7,30.04,WSW,247,1.1,-999.0,73,-99.99,,,0.00,Acu-Link.com,2013-08-19 23:25:00,
2013-08-19 19:40:00,72.5,63.7,30.04,ESE,112,2.2,-999.0,74,-99.99,,,0.00,Acu-Link.com,2013-08-19 23:40:00,
2013-08-19 19:55:00,72.1,63.3,30.04,SSE,157,0.0,-999.0,74,-99.99,,,0.00,Acu-Link.com,2013-08-19 23:55:00,
2013-08-19 20:11:00,71.6,63.6,30.03,SW,225,0.0,-999.0,76,-99.99,,,0.00,Acu-Link.com,2013-08-20 00:11:00,
2013-08-19 20:26:00,71.2,63.2,30.03,SSE,157,0.0,-999.0,76,-99.99,,,0.00,Acu-Link.com,2013-08-20 00:26:00,
2013-08-19 20:41:00,70.9,63.7,30.04,SE,135,1.1,-999.0,78,-99.99,,,0.00,Acu-Link.com,2013-08-20 00:41:00,
2013-08-19 20:56:00,70.9,63.7,30.04,WSW,247,0.0,-999.0,78,-99.99,,,0.00,Acu-Link.com,2013-08-20 00:56:00,
2013-08-19 21:12:00,70.7,63.9,30.05,WSW,247,0.0,-999.0,79,-99.99,,,0.00,Acu-Link.com,2013-08-20 01:12:00,
2013-08-19 21:27:00,70.5,63.7,30.05,West,270,0.0,-999.0,79,-99.99,,,0.00,Acu-Link.com,2013-08-20 01:27:00,
2013-08-19 21:42:00,70.3,63.8,30.05,South,180,0.0,-999.0,80,-99.99,,,0.00,Acu-Link.com,2013-08-20 01:42:00,
2013-08-19 21:57:00,70.3,63.8,30.05,SSW,202,0.0,-999.0,80,-99.99,,,0.00,Acu-Link.com,2013-08-20 01:57:00,
2013-08-19 22:13:00,70.2,63.7,30.05,SW,225,2.7,-999.0,80,-99.99,,,0.00,Acu-Link.com,2013-08-20 02:13:00,
2013-08-19 22:28:00,70.0,63.9,30.05,South,180,0.0,-999.0,81,-99.99,,,0.00,Acu-Link.com,2013-08-20 02:28:00,
2013-08-19 22:43:00,69.8,63.7,30.05,SW,225,2.2,-999.0,81,-99.99,,,0.00,Acu-Link.com,2013-08-20 02:43:00,
2013-08-19 22:58:00,69.4,63.7,30.05,WSW,247,1.1,-999.0,82,-99.99,,,0.00,Acu-Link.com,2013-08-20 02:58:00,
2013-08-19 23:13:00,69.3,63.9,30.05,WNW,292,1.1,-999.0,83,-99.99,,,0.00,Acu-Link.com,2013-08-20 03:13:00,
2013-08-19 23:29:00,68.5,63.1,30.05,SSE,157,0.0,-999.0,83,-99.99,,,0.00,Acu-Link.com,2013-08-20 03:29:00,
2013-08-19 23:44:00,67.8,62.8,30.05,ESE,112,0.0,-999.0,84,-99.99,,,0.00,Acu-Link.com,2013-08-20 03:44:00,
2013-08-19 23:59:00,67.3,62.3,30.05,WSW,247,0.0,-999.0,84,-99.99,,,0.00,Acu-Link.com,2013-08-20 03:59:00,